This is the latest recevied weather packets stored in our database for station/object AD8BW. If no packets are shown the sender has not sent any weather packets the latest 10 day(s).
| Time | Temp. | Humidity | Pressure | Rain* | Wind** | Luminosity | Snow |
|---|---|---|---|---|---|---|---|
| 1777937033 | 22.78° C | 46% | 998.1 hPa | 0 mm | - | 32 W/m² | - |
| 1777936425 | 22.78° C | 46% | 998 hPa | 0 mm | - | 44 W/m² | - |
| 1777935826 | 22.78° C | 44% | 998 hPa | 0 mm | - | 53 W/m² | - |
| 1777935222 | 23.33° C | 44% | 998 hPa | 0 mm | - | 47 W/m² | - |
| 1777934623 | 23.33° C | 42% | 998.1 hPa | 0 mm | - | 39 W/m² | - |
| 1777934028 | 23.33° C | 41% | 998.4 hPa | 0 mm | - | 76 W/m² | - |
| 1777933427 | 23.33° C | 41% | 998.5 hPa | 0 mm | - | 54 W/m² | - |
| 1777932825 | 23.33° C | 39% | 998.6 hPa | 0 mm | - | 67 W/m² | - |
| 1777932223 | 23.33° C | 40% | 999 hPa | 0 mm | - | 49 W/m² | - |
| 1777931635 | 23.33° C | 39% | 998.8 hPa | 0 mm | - | 188 W/m² | - |
| 1777931030 | 23.33° C | 38% | 998.7 hPa | 0 mm | - | 455 W/m² | - |
| 1777930430 | 23.33° C | 38% | 998.8 hPa | 0 mm | - | 483 W/m² | - |
| 1777929830 | 23.33° C | 37% | 999 hPa | 0 mm | - | 93 W/m² | - |
| 1777929224 | 23.33° C | 36% | 999.1 hPa | 0 mm | - | 306 W/m² | - |
| 1777928642 | 23.89° C | 36% | 999.1 hPa | 0 mm | - | 176 W/m² | - |
| 1777928021 | 23.33° C | 34% | 999.1 hPa | 0 mm | - | 100 W/m² | - |
| 1777927420 | 23.33° C | 33% | 999.2 hPa | 0 mm | - | 125 W/m² | - |
| 1777926820 | 23.89° C | 32% | 999.3 hPa | 0 mm | - | 130 W/m² | - |
| 1777926221 | 23.89° C | 31% | 999.2 hPa | 0 mm | - | 229 W/m² | - |
| 1777925620 | 23.33° C | 31% | 999.3 hPa | 0 mm | - | 148 W/m² | - |
| 1777925019 | 23.89° C | 30% | 999.3 hPa | 0 mm | - | 318 W/m² | - |
| 1777924418 | 23.89° C | 31% | 999.5 hPa | 0 mm | - | 302 W/m² | - |
| 1777923821 | 23.89° C | 30% | 999.5 hPa | 0 mm | - | 178 W/m² | - |
| 1777923214 | 23.89° C | 27% | 999.5 hPa | 0 mm | - | 304 W/m² | - |
| 1777922615 | 23.89° C | 27% | 999.7 hPa | 0 mm | - | 666 W/m² | - |
* Rain latest hour (hover to see other rain measurements)
** Current wind speed in m/s (hover to see current wind gust speed)